Regional Weather Roundup
Issued by NWS

Home | Current Version | Previous Version | Text Only | Print | Product List | Glossary Off
Versions: 1 2 3 4 5 6 7 8 9 10 11 12 13 14 15 16 17 18 19 20 21 22 23 24 25 26 27 28 29 30 31 32 33 34 35 36 37 38 39 40 41 42 43 44 45 46 47 48 49 50

000
ASUS45 KSLC 281410
RWRUT

UTAH REGIONAL WEATHER ROUNDUP
NATIONAL WEATHER SERVICE SALT LAKE CITY UT
700 AM MST SAT FEB 28 2015

UTZ001>011-023>025-281500-

NORTHERN UTAH

CITY           SKY/WX    TMP DP  RH WIND       PRES   REMARKS
BRIGHAM CITY   PTCLDY    27  22  80 NW9       29.67S WCI  18
HILL AFB       PTCLDY    30  16  54 E18G32    29.65R WCI  18
LOGAN          PTCLDY    22  18  85 CALM      29.72S
OGDEN          PTCLDY    26  24  92 W9        29.65R WCI  17
PROVO AIRPORT  NOT AVBL
SALT LAKE CITY MOCLDY    27  23  85 N5        29.66R WCI  22
VERNAL         CLOUDY    23  15  71 NW7       29.77R WCI  15
WENDOVER       CLOUDY    36  27  69 SW6       29.65S WCI  31
HEBER CITY     MOCLDY    19  16  86 CALM      29.71R
WEST JORDAN    CLEAR     28  21  74 SW3       29.66R

$$

UTZ012>022-026-027-281500-

SOUTHERN/CENTRAL UTAH

CITY           SKY/WX    TMP DP  RH WIND       PRES   REMARKS
BLANDING       CLOUDY    29  29 100 E5        29.80S VSB 3/4 WCI  24
BRYCE CANYON   LGT SNOW  25  23  92 SE9       29.63S VSB 3/4 WCI  15
CEDAR CITY     LGT SNOW  32  30  92 NW3       29.61R VSB 1
DELTA          CLOUDY    30  21  67 CALM      29.62R
HANKSVILLE     CLOUDY    34  32  93 N3        29.74S
MILFORD        SNOW      30  28  92 NE5       29.60S VSB 1/2 WCI  25
MOAB/CYNLANDS  CLOUDY    31  23  72 SE10      29.71F WCI  22
PRICE          CLOUDY    30  24  78 E5        29.70F WCI  25
ST GEORGE      CLOUDY    43  37  81 S5        29.65S

$$

REGIONAL REPORTS     COLORADO/ARIZONA

CITY           SKY/WX    TMP DP  RH WIND       PRES   REMARKS
CRAIG, CO        N/A     19  10  68 E6        29.80R WCI  11
GRAND JUNCTION MOCLDY    24  19  81 SE9       29.77F WCI  14
RIFLE          CLEAR     19  13  77 S6        29.81F WCI  11
MONTROSE       CLOUDY    18  13  80 S3        29.81R
CORTEZ         LGT SNOW  30  28  92 CALM      29.76S VSB 1
PAGE, AZ       FOG       33  31  92 CALM      29.67R VSB 1/4
GRAND CANYON   CLOUDY    35  34  96 SW22G29   29.68R WCI  23
KINGMAN        CLOUDY    48  34  58 S13       29.69R
FLAGSTAFF      CLOUDY    36  30  79 SW22G33   29.70R WCI  25

$$

REGIONAL REPORTS    NEVADA/IDAHO/WYOMING

CITY           SKY/WX    TMP DP  RH WIND       PRES   REMARKS
LAS VEGAS, NV  MOCLDY    53  35  50 SW14      29.59R
ELY            CLOUDY    25  24  96 CALM      29.60R
ELKO           FOG       25  24  96 CALM      29.62S VSB 1/2
POCATELLO, ID  PTCLDY    19  15  84 NE13      29.76S WCI   6
BURLEY         CLOUDY    26  16  65 E17       29.71S WCI  13
EVANSTON, WY   PTCLDY    16  13  88 E17       29.68F WCI   0
ROCK SPRINGS   MOCLDY    11   7  84 NE13      29.78S WCI  -4

$$



USA.gov is the U.S. government's official web portal to all federal, state and local government web resources and services.